Wind_Speed
7 8 19 20 17 11 9 9 10 7 9 9 11 4 3 4 8 9 10 11 11 9 8 7 7 8 9 10 11 9 5 2 2 6 10 8 27 36 37 31 35 36 29 24
5 13 18 15 15 11 11 8 7 5 7 8 12 5 4 3 5 7 9 11 12 10 10 9 10 9 9 10 9 10 11 8 9 11 11 7 25 33 33 37 39 28 30 29
6 10 14 11 14 9 12 9 7 7 4 5 13 4 4 3 5 8 11 13 12 12 11 11 11 11 10 11 11 10 13 15 14 10 10 6 8 24 21 31 43 39 34 30
3 9 11 11 12 12 10 8 5 6 5 4 12 5 7 8 8 10 13 15 13 12 13 13 14 14 13 13 14 14 13 16 16 18 14 14 9 5 27 21 21 35 32 26
2 6 8 10 11 14 12 11 4 4 5 3 7 4 4 12 13 14 14 13 13 15 15 14 14 14 17 15 14 16 16 15 16 19 19 21 17 13 9 13 18 32 30 28
2 5 6 10 11 11 14 10 6 7 5 1 4 4 5 12 15 15 15 15 15 14 14 14 13 16 21 21 15 16 16 17 18 18 21 23 21 21 19 15 16 16 15 17
1 1 6 7 10 9 14 11 2 4 2 4 5 6 7 12 15 17 16 14 13 13 14 15 16 18 20 22 18 13 15 18 20 21 22 22 23 25 26 25 25 23 23 23
3 1 5 8 9 10 10 9 4 4 2 5 6 4 6 12 15 15 13 12 11 13 16 18 19 20 21 24 22 13 11 16 18 20 23 22 23 24 27 29 29 28 28 28
3 2 1 7 9 10 8 6 6 3 5 4 4 5 6 12 14 15 14 14 14 15 16 17 18 20 23 24 19 12 9 9 13 17 20 22 23 24 25 26 28 29 30 29
3 3 2 3 8 8 7 8 3 2 3 4 5 7 5 14 14 15 16 16 17 17 17 17 19 21 24 23 14 12 10 7 8 12 16 18 20 22 24 25 26 27 27 28
5 3 4 4 5 9 7 6 4 5 1 4 1 2 6 13 14 14 15 16 16 17 16 17 19 22 24 20 16 15 13 8 5 6 10 13 16 18 21 23 24 25 27 27
5 5 4 5 8 9 11 10 7 4 3 5 4 6 8 14 14 13 12 15 17 17 18 17 19 22 22 20 17 15 14 12 10 6 4 7 10 13 15 19 22 24 26 26
4 2 3 5 3 5 9 12 13 12 12 10 3 4 13 13 12 7 9 14 17 18 18 19 19 21 22 22 18 15 13 11 9 9 6 3 5 7 10 15 18 21 24 27
10 8 8 7 11 13 16 17 19 17 9 7 16 13 4 10 6 5 9 13 16 19 19 20 20 22 22 22 22 19 12 10 8 7 6 5 3 2 4 8 13 18 21 22
11 13 12 11 15 19 23 21 21 27 26 16 14 16 4 3 2 4 7 11 13 15 19 19 19 20 23 22 21 20 15 9 8 7 6 4 4 2 1 2 7 12 16 18
18 15 16 17 16 18 19 20 23 28 28 28 23 13 3 2 3 5 6 8 11 13 15 16 18 19 21 22 21 20 17 12 7 6 5 5 5 4 3 5 6 9 12 14
18 15 12 9 13 18 22 14 14 17 19 16 14 7 4 3 2 3 6 6 7 10 13 15 15 17 19 21 21 19 18 17 13 8 4 7 11 11 6 4 4 4 9 11
20 16 12 11 14 3 9 9 8 16 14 17 12 9 6 4 3 3 5 6 3 6 9 13 14 15 16 18 19 18 20 20 11 7 7 12 12 11 10 10 7 6 6 7
24 21 11 6 8 18 24 20 21 22 12 12 10 8 7 5 5 6 4 5 6 3 6 9 12 14 14 15 16 16 18 20 17 14 13 14 16 16 16 13 11 8 3 8
29 26 22 10 6 5 5 6 5 8 17 12 7 7 8 7 5 6 6 6 6 8 4 6 8 10 12 12 13 13 14 15 17 15 16 15 13 11 11 11 12 13 15 16
27 32 31 29 15 13 20 19 15 10 10 9 6 8 9 8 8 6 7 7 7 6 8 5 4 8 9 9 10 9 9 10 11 12 11 10 10 9 9 9 11 15 17 17
22 19 23 24 14 15 17 21 22 16 13 12 8 10 10 10 10 9 10 10 9 7 7 9 6 4 6 6 6 6 4 4 5 7 8 8 8 7 7 8 9 10 11 10
31 33 23 23 20 19 9 9 11 16 16 15 14 14 15 13 14 15 14 13 12 10 9 9 9 11 7 7 7 7 5 3 2 2 4 5 5 6 6 6 7 8 7 8
38 35 36 33 33 28 19 17 18 16 19 22 20 21 17 16 18 19 19 17 15 13 12 11 10 11 12 11 10 12 11 10 9 8 6 5 4 4 5 5 5 5 5 5
38 34 40 43 36 29 26 21 19 20 26 30 30 24 23 23 22 20 17 16 18 19 19 19 17 16 14 15 15 15 15 16 16 15 14 12 11 10 10 9 8 7 7 8
49 43 38 39 27 32 22 22 25 25 26 26 27 28 25 25 26 21 19 19 21 22 24 25 24 21 19 21 18 20 19 18 21 20 21 21 20 18 16 16 15 14 13 13
Wind_Direction
37 51 49 29 31 29 22 9 355 0 356 356 344 331 316 355 3 2 6 13 26 20 357 332 315 297 270 258 260 264 256 182 187 254 263 272 191 213 208 208 216 221 214 218
31 40 51 27 25 15 11 4 12 9 349 349 335 313 301 349 8 3 353 351 352 355 347 339 331 319 306 289 273 260 250 231 197 201 238 225 222 220 218 216 214 210 212 217
46 53 51 26 23 9 7 14 9 10 356 339 348 291 331 321 341 344 342 344 339 344 342 336 330 320 305 295 279 261 244 245 238 219 217 232 239 203 198 214 214 214 220 215
20 48 46 17 11 8 3 349 346 1 355 12 5 299 346 349 349 346 338 338 340 336 336 336 332 329 317 298 285 274 255 244 236 233 222 235 243 197 213 201 190 211 220 217
50 42 39 7 359 7 353 336 299 334 335 328 351 323 324 354 4 356 347 341 332 330 331 335 337 341 336 316 287 274 266 257 243 238 233 239 232 231 202 204 210 199 213 209
85 45 24 10 350 349 353 341 282 288 314 328 336 343 293 344 347 349 345 336 331 333 337 339 338 343 342 333 310 272 264 259 252 243 239 236 233 231 226 201 194 200 197 200
244 30 27 3 353 334 355 356 322 318 359 213 303 295 317 331 339 341 341 341 345 345 342 342 338 334 338 341 332 298 270 256 249 247 245 239 233 232 232 231 224 214 217 218
245 321 20 358 352 338 348 18 44 253 322 286 283 259 329 334 341 349 1 4 0 351 347 345 343 341 339 339 337 322 275 259 250 242 244 244 241 233 234 237 235 231 230 226
303 203 269 5 341 343 341 5 354 283 293 311 296 304 334 350 354 0 7 9 6 1 357 356 1 356 346 342 336 329 316 276 262 254 247 244 244 240 237 236 236 236 236 232
281 270 234 347 330 314 338 346 318 319 22 317 293 294 298 348 353 358 357 0 8 10 10 12 10 7 359 356 6 1 344 324 283 264 257 253 247 241 239 236 236 235 235 234
304 281 271 320 313 305 302 315 325 315 286 174 291 288 323 339 346 353 359 3 7 15 19 14 12 16 14 16 22 18 11 3 339 292 274 265 261 251 241 237 235 233 232 232
299 295 284 294 297 289 286 284 279 270 274 243 244 286 335 335 339 348 6 11 13 15 19 17 17 17 19 15 14 14 15 12 12 1 303 278 268 258 249 241 237 231 229 230
300 267 301 291 289 275 289 298 282 274 273 242 188 311 335 331 339 0 21 13 16 17 19 19 24 20 17 17 11 3 4 6 12 15 7 326 283 269 250 237 230 229 227 227
279 267 251 264 291 289 287 293 289 270 265 273 267 317 328 318 345 19 13 12 10 13 15 18 18 17 17 15 12 7 356 355 356 360 7 11 350 303 263 236 222 218 221 224
265 273 272 272 282 293 293 294 286 273 268 262 289 310 332 340 344 353 5 8 4 9 14 12 12 11 11 11 10 6 359 354 345 356 2 0 30 24 50 157 193 202 208 214
258 267 279 287 286 296 292 287 282 277 268 267 277 297 309 339 304 320 345 359 359 359 11 11 8 4 3 5 10 9 4 2 6 356 10 17 37 69 90 145 159 184 192 199
251 257 277 282 287 301 296 291 279 268 271 276 271 275 289 286 281 308 331 344 358 351 0 6 5 4 358 3 10 21 20 8 2 4 32 64 79 70 83 92 98 139 181 192
249 254 264 278 290 315 279 282 258 293 277 270 274 265 262 275 264 272 308 318 354 346 351 357 356 1 1 4 16 23 21 18 20 20 96 99 89 81 80 79 82 128 175 174
247 246 247 252 228 275 282 273 272 273 274 285 280 268 262 261 252 252 294 319 307 319 331 343 348 352 359 4 9 17 26 36 54 74 96 96 92 94 90 81 73 67 117 178
235 237 232 238 247 223 273 277 234 263 285 271 260 285 283 272 270 262 282 299 307 298 301 323 336 343 349 357 5 16 29 47 65 75 83 83 85 81 74 69 64 65 98 107
215 224 229 234 244 258 251 258 251 247 276 234 258 298 288 289 285 287 290 298 306 315 302 288 313 330 341 340 353 5 28 42 67 81 77 72 71 70 74 75 78 84 109 109
230 221 226 224 231 259 255 245 239 255 258 241 281 298 286 287 293 299 307 306 308 314 313 305 292 292 316 313 315 332 355 50 65 80 88 92 89 86 84 86 89 98 110 114
228 226 233 229 245 253 248 254 249 243 240 245 277 292 283 275 291 302 306 306 305 306 311 316 313 301 294 295 267 269 264 243 207 152 130 123 120 121 116 107 103 105 110 120
241 241 237 241 246 246 245 254 253 249 232 252 273 282 275 275 282 296 295 285 287 292 300 308 309 299 293 285 275 253 249 241 237 228 225 219 209 203 186 173 164 158 157 156
251 246 243 246 246 249 243 259 258 243 246 259 271 267 275 280 286 291 286 290 283 279 283 287 296 296 286 282 274 267 259 253 241 237 236 235 236 235 235 231 222 217 214 208
248 248 242 249 252 248 250 252 256 250 252 254 252 263 265 274 282 281 287 286 287 284 280 283 288 287 282 275 268 268 267 262 257 250 241 238 237 236 237 236 236 236 233 229
Height
3145 3143 3137 3137 3137 3135 3133 3130 3130 3127 3125 3124 3122 3120 3118 3116 3114 3111 3109 3107 3105 3103 3101 3099 3098 3097 3097 3096 3094 3092 3091 3091 3092 3096 3098 3099 3100 3104 3111 3115 3116 3122 3125 3130
3145 3140 3136 3139 3138 3136 3133 3131 3129 3127 3125 3124 3122 3120 3118 3115 3113 3112 3109 3106 3104 3102 3100 3098 3097 3095 3094 3091 3090 3090 3092 3093 3093 3094 3097 3098 3100 3101 3105 3107 3111 3110 3118 3124
3142 3141 3138 3140 3138 3137 3135 3132 3130 3129 3126 3124 3122 3119 3117 3115 3113 3110 3108 3105 3102 3100 3098 3096 3095 3093 3092 3089 3090 3090 3091 3093 3093 3091 3092 3094 3097 3096 3099 3103 3105 3109 3113 3116
3142 3140 3139 3140 3138 3137 3134 3132 3129 3128 3127 3125 3123 3121 3117 3115 3112 3110 3106 3104 3101 3098 3097 3094 3092 3090 3089 3088 3086 3085 3087 3089 3087 3089 3088 3092 3095 3094 3096 3099 3101 3105 3111 3113
3141 3139 3138 3139 3139 3137 3135 3132 3130 3127 3126 3125 3122 3121 3116 3114 3112 3109 3106 3102 3100 3097 3095 3093 3090 3088 3086 3085 3083 3081 3081 3081 3082 3084 3085 3090 3091 3094 3095 3096 3099 3101 3105 3109
3139 3139 3139 3138 3138 3136 3133 3130 3129 3127 3124 3124 3123 3122 3116 3114 3111 3108 3105 3101 3098 3096 3093 3091 3089 3085 3082 3079 3075 3074 3074 3074 3075 3077 3082 3086 3087 3090 3094 3096 3098 3101 3104 3107
3139 3138 3137 3138 3139 3137 3134 3129 3128 3132 3126 3125 3121 3120 3115 3114 3111 3108 3105 3101 3097 3095 3093 3091 3088 3085 3080 3075 3071 3069 3068 3069 3071 3072 3076 3080 3083 3086 3090 3093 3096 3098 3101 3104
3139 3136 3136 3137 3138 3138 3135 3133 3133 3140 3133 3122 3119 3118 3115 3113 3111 3108 3105 3102 3099 3096 3092 3088 3086 3082 3078 3073 3068 3066 3066 3065 3067 3068 3071 3073 3077 3080 3083 3087 3090 3093 3096 3099
3139 3136 3134 3135 3137 3139 3136 3135 3135 3132 3130 3128 3118 3115 3114 3113 3111 3108 3105 3102 3099 3096 3092 3088 3085 3081 3076 3071 3065 3061 3062 3062 3062 3063 3066 3069 3071 3075 3077 3080 3083 3087 3090 3094
3139 3137 3134 3134 3136 3137 3137 3137 3134 3130 3134 3133 3117 3114 3113 3111 3109 3107 3104 3101 3099 3096 3093 3089 3086 3081 3075 3069 3065 3063 3062 3060 3060 3060 3062 3064 3067 3069 3072 3075 3078 3082 3085 3089
3137 3136 3137 3133 3134 3134 3136 3134 3134 3134 3130 3131 3130 3113 3111 3110 3108 3107 3104 3101 3098 3096 3093 3091 3087 3082 3077 3072 3069 3067 3063 3060 3060 3060 3060 3060 3062 3064 3066 3069 3072 3076 3080 3084
3136 3135 3133 3133 3130 3131 3132 3132 3132 3133 3130 3127 3126 3114 3110 3108 3107 3105 3104 3102 3099 3096 3094 3091 3087 3083 3080 3075 3071 3068 3066 3063 3061 3059 3058 3058 3058 3060 3062 3063 3066 3071 3074 3078
3135 3134 3132 3131 3131 3129 3129 3131 3131 3131 3129 3123 3125 3112 3109 3107 3105 3104 3103 3102 3100 3097 3094 3092 3089 3085 3080 3078 3074 3071 3068 3065 3061 3059 3058 3057 3058 3058 3058 3060 3062 3066 3070 3074
3133 3131 3131 3131 3129 3128 3125 3124 3128 3129 3128 3120 3113 3110 3109 3107 3105 3104 3103 3102 3100 3098 3095 3092 3088 3086 3082 3078 3075 3072 3068 3066 3063 3060 3058 3057 3056 3056 3057 3056 3059 3062 3066 3070
3131 3129 3128 3127 3126 3124 3122 3120 3120 3119 3122 3119 3111 3108 3108 3106 3105 3104 3102 3101 3100 3097 3095 3092 3090 3087 3084 3080 3076 3072 3070 3066 3063 3060 3059 3057 3056 3055 3056 3055 3057 3059 3063 3067
3127 3126 3124 3122 3122 3120 3116 3114 3114 3113 3112 3109 3108 3106 3106 3104 3103 3103 3102 3100 3099 3098 3095 3093 3091 3088 3085 3081 3077 3072 3068 3066 3064 3061 3059 3058 3057 3056 3056 3056 3057 3058 3061 3064
3124 3123 3122 3119 3119 3116 3112 3108 3104 3108 3108 3108 3106 3105 3103 3102 3101 3101 3101 3099 3098 3097 3096 3094 3091 3089 3086 3082 3078 3074 3071 3067 3063 3062 3060 3058 3057 3058 3058 3057 3058 3061 3062 3064
3119 3120 3121 3118 3118 3117 3105 3106 3105 3105 3105 3106 3105 3104 3101 3100 3100 3099 3099 3098 3096 3095 3095 3094 3092 3090 3087 3084 3081 3077 3072 3068 3065 3062 3061 3061 3061 3061 3061 3061 3062 3063 3065 3065
3115 3116 3117 3116 3113 3106 3102 3102 3102 3102 3104 3103 3104 3103 3101 3098 3098 3097 3096 3096 3096 3093 3093 3093 3092 3091 3088 3085 3083 3080 3076 3071 3069 3068 3067 3066 3065 3065 3065 3065 3065 3063 3063 3063
3107 3110 3113 3111 3110 3105 3099 3098 3098 3099 3098 3098 3099 3101 3101 3099 3095 3095 3094 3093 3093 3093 3091 3091 3091 3091 3090 3087 3085 3083 3081 3078 3075 3074 3073 3073 3072 3071 3071 3071 3069 3066 3063 3064
3098 3101 3102 3104 3104 3096 3095 3095 3097 3100 3101 3096 3096 3096 3097 3098 3097 3094 3092 3092 3091 3090 3091 3089 3089 3090 3090 3089 3087 3085 3084 3083 3081 3078 3077 3077 3077 3076 3075 3074 3074 3072 3072 3071
3091 3093 3095 3098 3100 3092 3088 3089 3092 3093 3093 3094 3095 3095 3094 3094 3095 3093 3091 3090 3089 3088 3088 3089 3088 3086 3087 3088 3087 3086 3085 3084 3084 3083 3081 3080 3080 3080 3079 3079 3078 3078 3077 3077
3081 3083 3086 3088 3085 3085 3085 3086 3087 3088 3090 3089 3091 3092 3092 3092 3093 3091 3090 3089 3088 3087 3086 3086 3087 3087 3085 3085 3086 3086 3085 3084 3083 3084 3084 3083 3082 3082 3082 3081 3081 3081 3081 3080
3068 3073 3075 3080 3079 3080 3081 3082 3084 3085 3086 3085 3085 3087 3088 3088 3088 3088 3086 3085 3085 3084 3084 3083 3084 3083 3083 3083 3082 3082 3082 3083 3082 3082 3083 3083 3083 3083 3082 3082 3082 3082 3083 3083
3060 3063 3065 3066 3071 3073 3075 3077 3079 3081 3080 3080 3080 3081 3081 3082 3084 3082 3081 3081 3080 3080 3080 3079 3079 3080 3079 3079 3080 3079 3080 3080 3080 3081 3081 3081 3082 3083 3083 3082 3082 3082 3082 3082
3041 3049 3055 3057 3067 3067 3071 3072 3072 3073 3074 3074 3074 3074 3075 3075 3077 3077 3076 3076 3075 3074 3073 3073 3073 3074 3075 3073 3074 3075 3077 3077 3078 3078 3078 3078 3078 3078 3080 3080 3080 3080 3080 3081